Location: Unspecified
(50.7693°N, 0.0000°E)
Time: 10:34:53
(UTC+00:00)

Vanguard 1 Rocket - Pass Details

Date: 22 June 2019
Orbit: 650 x 4226 km, 34.3° (Epoch: 13 October)

Event Time Altitude Azimuth Distance (km) Brightness Sun altitude
Rises 17:29:42 0° 233° (SW) 7,525 12.7 22.9°
Reaches altitude 10° 17:36:17 10° 225° (SW) 5,925 12.1 21.9°
Maximum altitude 17:49:07 30° 174° (S) 3,181 10.1 19.9°
Drops below altitude 10° 17:56:50 10° 118° (ESE) 3,499 9.9 18.7°
Sets 17:59:34 0° 106° (ESE) 4,120 10.1 18.3°
